This is the latest recevied weather packets stored in our database for station/object IN3XSV-13. If no packets are shown the sender has not sent any weather packets the latest 10 day(s).
| Time | Temp. | Humidity | Pressure | Rain* | Wind** | Luminosity | Snow |
|---|---|---|---|---|---|---|---|
| 1787986362 | 26.11° C | 71% | 1009.6 hPa | 0 mm | - | - | - |
| 1787986062 | 25.56° C | 72% | 1009.5 hPa | 0 mm | - | - | - |
| 1787985762 | 25° C | 73% | 1009.6 hPa | 0 mm | - | - | - |
| 1787985462 | 24.44° C | 72% | 1009.5 hPa | 0 mm | - | - | - |
| 1787985162 | 23.89° C | 76% | 1009.4 hPa | 0 mm | - | - | - |
| 1787984862 | 22.78° C | 78% | 1009.4 hPa | 0 mm | - | - | - |
| 1787984562 | 21.67° C | 80% | 1009.5 hPa | 0 mm | - | - | - |
| 1787984262 | 21.67° C | 79% | 1009.5 hPa | 0 mm | - | - | - |
| 1787983962 | 22.78° C | 79% | 1009.4 hPa | 0 mm | - | - | - |
| 1787983662 | 22.78° C | 80% | 1009.3 hPa | 0 mm | - | - | - |
| 1787983362 | 21.67° C | 82% | 1009.5 hPa | 0 mm | - | - | - |
| 1787983062 | 20.56° C | 84% | 1009.6 hPa | 0 mm | - | - | - |
| 1787982762 | 20° C | 84% | 1009.4 hPa | 0 mm | - | - | - |
| 1787982462 | 19.44° C | 86% | 1009.5 hPa | 0 mm | - | - | - |
| 1787982162 | 18.89° C | 86% | 1009.3 hPa | 0 mm | - | - | - |
| 1787981862 | 18.33° C | 87% | 1009.3 hPa | 0 mm | - | - | - |
| 1787981562 | 18.33° C | 87% | 1009.2 hPa | 0 mm | - | - | - |
| 1787981262 | 18.33° C | 87% | 1009.2 hPa | 0 mm | - | - | - |
| 1787980962 | 17.78° C | 87% | 1009.2 hPa | 0 mm | - | - | - |
| 1787980662 | 17.78° C | 87% | 1009.2 hPa | 0 mm | - | - | - |
| 1787980362 | 17.78° C | 88% | 1009 hPa | 0 mm | - | - | - |
| 1787980062 | 17.78° C | 87% | 1009 hPa | 0 mm | - | - | - |
| 1787979762 | 17.22° C | 87% | 1009 hPa | 0 mm | - | - | - |
| 1787979462 | 17.22° C | 88% | 1009 hPa | 0 mm | - | - | - |
| 1787979162 | 17.22° C | 87% | 1009 hPa | 0 mm | - | - | - |
* Rain latest hour (hover to see other rain measurements)
** Current wind speed in m/s (hover to see current wind gust speed)